Location: *
(49.1466°N, 1.6216°E)
Time: 19:58:59
(UTC+00:00)

Okean O Rocket - Pass Details

Date: 25 September 2023
Orbit: 619 x 641 km, 98.1° (Epoch: 10 December)

Event Time Altitude Azimuth Distance (km) Brightness Sun altitude
Exits shadow 20:09:17 12° 201° (SSW) 1,884 3.9 -23.4°
Maximum altitude 20:12:54 33° 264° (W) 1,069 3.2 -24.0°
Drops below altitude 10° 20:16:57 10° 329° (NNW) 2,043 5.0 -24.5°
Sets 20:19:21 0° 339° (NNW) 2,960 5.8 -24.9°
